Tracking 28052 objects as of 25-Sep-2023
HD Live streaming from Space Station
objects crossing your sky now

COSMOS 1579 FUEL CORE

Track COSMOS 1579 FUEL CORE now!
10-day predictions


NORAD ID: 15330
Int'l Code: 1984-069D
Perigee: 900.6 km
Apogee: 971.8 km
Inclination: 65.1 °
Period: 103.6 minutes
Semi major axis: 7307 km
RCS: 0.1745 m2 (medium)
Launch date: June 29, 1984
Source: Commonwealth of Independent States (former USSR) (CIS)
Launch site: TYURATAM MISSILE AND SPACE COMPLEX (TTMTR)

Note: This is SATELLITE DEBRIS
Your satellite tracking list
Your tracking list is empty




NASA's NSSDC Master Catalog

Two Line Element Set (TLE):
1 15330U 84069D   23268.53870553 -.00000052  00000-0  30501-4 0  9997
2 15330  65.0533 266.3838 0048680 295.0547 150.8587 13.89880985993644
Source of the keplerian elements: AFSPC